This demonstration page uses our WeatherBlox Daily Observations layout. Learn more.

Hourly Observations for April 29, 2018

Temp ( °F °C ) Dew Point ( °F °C ) Humidity (%) Winds ( mph kmh ) Pressure ( in mb ) Visibility ( mi km ) Precip ( " mm )
12:15 am 00:15 Clear 52 11 34 1.1 51 51 SE 16 26 30.06 1018 10 16.0934 0 0
12:35 am 00:35 Clear 52 11.1 34 1.2 51 51 SE 16 26 30.03 1017 10 16.0934 0 0
12:55 am 00:55 Clear 51 10.5 35 1.6 54 54 SE 15 24 30.03 1017 10 16.0934 0 0
1:15 am 01:15 Clear 50 10 35 1.9 57 57 SE 13 20 30.03 1017 10 16.0934 0 0
1:35 am 01:35 Clear 49 9.7 36 2 59 59 SE 14 22 30.03 1017 10 16.0934 0 0
1:55 am 01:55 Clear 49 9.5 36 2 60 60 SE 14 22 30.03 1017 10 16.0934 0 0
2:15 am 02:15 Clear 49 9.3 36 2.2 61 61 SE 13 20 30.06 1018 10 16.0934 0 0
2:35 am 02:35 Clear 49 9.3 36 2.3 62 62 SE 14 22 30.06 1018 10 16.0934 0 0
2:55 am 02:55 Clear 49 9.5 37 2.6 62 62 SE 13 20 30.03 1017 10 16.0934 0 0
3:15 am 03:15 Clear 50 10 37 2.8 61 61 SSE 16 26 30 1016 10 16.0934 0 0
3:35 am 03:35 Clear 51 10.5 37 2.7 59 59 SSE 16 26 30 1016 10 16.0934 0 0
3:55 am 03:55 Clear with Light Rain 51 10.4 38 3.4 62 62 SSE 16 26 30 1016 10 16.0934 0 0
4:15 am 04:15 Clear with Light Drizzle 50 10 39 3.8 66 66 SSE 20 31 30 1016 10 16.0934 0 0
4:35 am 04:35 Clear 50 10 38 3.6 65 65 SSE 20 31 30 1016 10 16.0934 0 0
4:55 am 04:55 Clear 50 10 38 3.5 64 64 SSE 20 31 30 1016 10 16.0934 0 0
5:15 am 05:15 Clear 50 10.2 38 3.2 62 62 SSE 24 39 30 1016 10 16.0934 0 0
5:35 am 05:35 Clear 50 10 38 3.2 63 63 SSE 20 31 29.97 1015 10 16.0934 0 0
5:55 am 05:55 Clear 49 9.5 38 3.2 65 65 SSE 20 31 29.97 1015 10 16.0934 0 0
6:15 am 06:15 Clear 49 9.6 38 3.2 65 65 SSE 23 37 29.97 1015 10 16.0934 0 0
6:35 am 06:35 Clear 50 9.9 38 3.2 63 63 SSE 20 31 29.97 1015 10 16.0934 0 0
6:55 am 06:55 Sunny 49 9.5 38 3.2 65 65 SSE 24 39 29.97 1015 10 16.0934 0 0
7:15 am 07:15 Sunny 49 9.5 38 3.5 66 66 SE 22 35 29.97 1015 10 16.0934 0 0
7:35 am 07:35 Sunny 50 9.8 38 3.6 66 66 SE 23 37 29.97 1015 10 16.0934 0 0
7:55 am 07:55 Sunny 49 9.7 39 3.8 67 67 SSE 21 33 29.97 1015 10 16.0934 0 0
8:15 am 08:15 Sunny 51 10.7 40 4.3 65 65 SSE 24 39 29.97 1015 10 16.0934 0 0
8:35 am 08:35 Sunny 53 11.6 40 4.5 62 62 SSE 28 44 29.97 1015 10 16.0934 0 0
8:55 am 08:55 Sunny 55 12.6 41 4.9 60 60 SSE 24 39 29.94 1014 10 16.0934 0 0
9:15 am 09:15 Sunny 56 13.4 41 5.2 58 58 SSE 29 46 29.91 1013 10 16.0934 0 0
9:35 am 09:35 Sunny 59 14.9 42 5.5 54 54 SSE 28 44 29.91 1013 10 16.0934 0 0
9:55 am 09:55 Sunny 61 16.2 43 5.9 51 51 SSE 25 41 29.88 1012 10 16.0934 0 0
10:15 am 10:15 Sunny 64 17.5 42 5.7 46 46 SSE 30 48 29.88 1012 10 16.0934 0 0
10:35 am 10:35 Sunny 66 18.7 43 6.1 44 44 SSE 32 52 29.83 1010 10 16.0934 0 0
10:55 am 10:55 Sunny 68 19.9 44 6.5 42 42 SSE 35 56 29.83 1010 10 16.0934 0 0
11:15 am 11:15 Sunny 69 20.8 45 7 41 41 SSE 35 56 29.83 1010 10 16.0934 0 0
11:35 am 11:35 Sunny 69 20.3 45 7 42 42 SSE 35 56 29.83 1010 10 16.0934 0 0
11:55 am 11:55 Sunny 70 21.3 46 7.5 41 41 SSE 31 50 29.83 1010 10 16.0934 0 0
12:15 pm 12:15 Sunny 73 22.5 47 8.2 40 40 SSE 30 48 29.77 1008 10 16.0934 0 0
12:35 pm 12:35 Sunny 75 23.8 47 8.6 38 38 S 35 56 29.74 1007 10 16.0934 0 0
12:55 pm 12:55 Sunny 76 24.5 48 8.9 37 37 SSE 33 54 29.74 1007 10 16.0934 0 0
1:15 pm 13:15 Sunny 77 25.1 48 9.1 36 36 SSE 32 52 29.68 1005 10 16.0934 0 0
1:35 pm 13:35 Sunny 79 26 49 9.4 35 35 S 31 50 29.68 1005 10 16.0934 0 0
1:55 pm 13:55 Sunny 78 25.7 49 9.5 36 36 S 35 56 29.68 1005 10 16.0934 0 0
2:15 pm 14:15 Sunny 78 25.8 49 9.6 36 36 S 33 54 29.65 1004 10 16.0934 0 0
2:35 pm 14:35 Sunny 79 26.1 50 9.8 36 36 SSE 32 52 29.65 1004 10 16.0934 0 0
2:55 pm 14:55 Sunny 79 26.3 50 9.9 36 36 SSE 37 59 29.65 1004 10 16.0934 0 0
3:15 pm 15:15 Sunny 80 26.6 50 10.2 36 36 S 35 56 29.65 1004 10 16.0934 0 0
3:35 pm 15:35 Sunny 81 27.3 50 10 34 34 SSE 39 63 29.65 1004 10 16.0934 0 0
3:55 pm 15:55 Sunny 81 27.1 50 9.9 34 34 S 38 61 29.65 1004 10 16.0934 0 0
4:15 pm 16:15 Partly Cloudy 80 26.6 50 10 35 35 S 36 57 29.65 1004 10 16.0934 0 0
4:35 pm 16:35 Partly Cloudy 80 26.6 51 10.3 36 36 S 28 44 29.65 1004 10 16.0934 0 0
4:55 pm 16:55 Partly Cloudy 78 25.8 50 10 37 37 S 32 52 29.65 1004 10 16.0934 0 0
5:15 pm 17:15 Sunny 80 26.6 50 9.9 35 35 SSE 36 57 29.62 1003 10 16.0934 0 0
5:35 pm 17:35 Sunny 81 27 49 9.6 34 34 S 32 52 29.62 1003 10 16.0934 0 0
5:55 pm 17:55 Sunny 80 26.5 48 9.1 33 33 S 33 54 29.62 1003 10 16.0934 0 0
6:15 pm 18:15 Sunny 79 26.1 48 9.1 34 34 S 28 44 29.62 1003 10 16.0934 0 0
6:35 pm 18:35 Sunny 79 26 48 9.1 34 34 S 31 50 29.62 1003 10 16.0934 0 0
6:55 pm 18:55 Sunny 78 25.7 48 8.8 34 34 S 33 54 29.62 1003 10 16.0934 0 0
7:15 pm 19:15 Sunny 78 25.4 48 9 35 35 SSE 31 50 29.62 1003 10 16.0934 0 0
7:35 pm 19:35 Sunny 77 24.8 50 9.8 39 39 SSE 28 44 29.62 1003 10 16.0934 0 0
7:55 pm 19:55 Sunny 76 24.4 50 9.9 40 40 SSE 26 43 29.62 1003 10 16.0934 0 0
8:15 pm 20:15 Sunny 75 24.1 47 8.6 37 37 S 25 41 29.65 1004 10 16.0934 0 0
8:35 pm 20:35 Clear 75 23.8 46 7.9 36 36 S 26 43 29.65 1004 10 16.0934 0 0
8:55 pm 20:55 Clear 74 23.2 46 7.6 37 37 S 24 39 29.65 1004 10 16.0934 0 0
9:15 pm 21:15 Clear 73 22.5 46 8 39 39 S 24 39 29.65 1004 10 16.0934 0 0
9:35 pm 21:35 Clear 72 22.2 47 8.2 41 41 S 24 39 29.68 1005 10 16.0934 0 0
9:55 pm 21:55 Clear 71 21.4 47 8.6 44 44 SSE 24 39 29.68 1005 10 16.0934 0 0
10:15 pm 22:15 Clear 70 21.2 48 9 46 46 SSE 28 44 29.68 1005 10 16.0934 0 0
10:35 pm 22:35 Clear 70 21.1 47 8.5 45 45 SSE 28 44 29.68 1005 10 16.0934 0 0
10:55 pm 22:55 Clear 69 20.7 47 8.3 45 45 SSE 28 44 29.71 1006 10 16.0934 0 0
11:15 pm 23:15 Clear 69 20.5 47 8.1 45 45 SSE 25 41 29.71 1006 10 16.0934 0 0
11:35 pm 23:35 Clear 68 20.1 47 8.1 46 46 S 26 43 29.71 1006 10 16.0934 0 0
11:55 pm 23:55 Clear 67 19.6 47 8.5 49 49 SSE 24 39 29.71 1006 10 16.0934 0 0

Powered by AerisWeather